Regional Weather Roundup
Issued by NWS Columbia, SC

Home | Current Version | Previous Version | Text Only | Print | Product List | Glossary On
Versions: 1 2 3 4 5 6 7 8 9 10 11 12 13 14 15 16 17 18 19 20 21 22 23 24 25 26
000
ASUS42 KCAE 291710
RWRCAE
REGIONAL WEATHER ROUNDUP
NATIONAL WEATHER SERVICE COLUMBIA SC
100 PM EDT SAT APR 29 2017

NOTE: "FAIR" INDICATES FEW OR NO CLOUDS BELOW 12,000 FEET WITH NO
SIGNIFICANT WEATHER AND/OR OBSTRUCTIONS TO VISIBILITY.

NOT ALL STATIONS ARE QUALITY CONTROLLED BY THE NATIONAL
WEATHER SERVICE. USE DATA WITH CAUTION...ESPECIALLY
DEWPOINT OBSERVATIONS.

SCZ001>056-GAZ040-063>065-077-291800-
...UPSTATE SOUTH CAROLINA...

CITY           SKY/WX    TMP DP  RH WIND       PRES   REMARKS
ANDERSON       CLOUDY    82  70  66 S6        30.18F
LIBERTY        PTSUNNY   84  69  60 S5        30.18F
SPARTANBURG    MOSUNNY   82  68  61 SW3       30.19S
CLEMSON        MOSUNNY   82  67  60 VRB5      30.20S
GREENVILLE     PTSUNNY   83  68  60 CALM      30.20F
GREENWOOD      CLOUDY    78  69  73 S9        30.21S
GREER          MOSUNNY   82  68  62 S9        30.18F
ROCK HILL      PTSUNNY   83  70  64 SW8       30.20F
CHESTER        CLOUDY    79  68  69 S8        30.20F
LAURENS        CLOUDY    77  70  78 S5        30.20S


...CENTRAL SOUTH CAROLINA...

CITY           SKY/WX    TMP DP  RH WIND       PRES   REMARKS
COLUMBIA APT   CLOUDY    84  69  60 SW9       30.18F
COLUMBIA OWENS PTSUNNY   85  68  56 SW8       30.19F
MCENTIRE ANGB  PTSUNNY   85  68  57 S7        30.19F
ORANGEBURG     MOSUNNY   84  68  58 S10       30.19F
SUMTER SHAW    MOSUNNY   84  67  56 S13       30.17F
NEWBERRY       CLOUDY    77  72  83 S3        30.23S
AIKEN          CLOUDY    77  70  78 S8        30.24S
BARNWELL       FAIR      86  70  58 S8        30.19S
MANNING        FAIR      82  68  61 S14       30.20F
CAMDEN         FAIR      84  68  58 VRB6G13   30.20F
LANCASTER      MOSUNNY   82  72  69 S8        30.19F


...EASTERN AND COASTAL SOUTH CAROLINA...

CITY           SKY/WX    TMP DP  RH WIND       PRES   REMARKS
MYRTLE BEACH   MOSUNNY   82  73  74 S15       30.22F
N MYRTLE BCH   SUNNY     80  73  79 S14       30.21F
CONWAY         FAIR      86  70  58 S9        30.20F
MARION         PTSUNNY   86  68  54 SW9       30.20S
HARTSVILLE     FAIR      84  68  58 S8        30.19F
FLORENCE       SUNNY     86  70  58 SW10      30.19F
DARLINGTON     SUNNY     85  70  60 S14G20    30.19F
CHARLESTON APT PTSUNNY   82  69  64 SW12      30.20F
MOUNT PLEASANT FAIR      81  73  78 S9G16     30.22F
WALTERBORO     PTSUNNY   84  68  58 S10G17    30.21S


...EASTERN GEORGIA...

CITY           SKY/WX    TMP DP  RH WIND       PRES   REMARKS
AUGUSTA BUSH F CLOUDY    83  73  72 SE9       30.17F
AUGUSTA DANIEL CLOUDY    81  69  67 SE8       30.19F
THOMSON        CLOUDY    79  71  75 SW9       30.23F
WASHINGTON     PTSUNNY   82  73  74 S7        30.18S
CLAXTON        FAIR      85  72  65 SE8       30.18F
SYLVANIA       MOSUNNY  N/A N/A N/A SW6       30.19F
STATESBORO     MOSUNNY   87  66  49 S12G17    30.18F
SAVANNAH       PTSUNNY   85  67  54 SE16      30.19F


...SOUTHERN NORTH CAROLINA...

CITY           SKY/WX    TMP DP  RH WIND       PRES   REMARKS
CHARLOTTE      PTSUNNY   83  69  62 S5        30.20F
MONROE         PTSUNNY   83  69  62 VRB7      30.19F
WADESBORO      SUNNY     84  68  58 S9        30.18F
ROCKINGHAM     MOSUNNY   84  70  61 S10       30.19F
RUTHERFORDTON  MOSUNNY   80  71  74 S8G20     30.19F
ASHEVILLE      SUNNY     83  61  47 S15G23    30.22F

$$




USA.gov is the U.S. government's official web portal to all federal, state and local government web resources and services.